[[{"header":{"parameterUnit":"m.s-1","parameterCategory":1,"la1":30.2991,"la2":30.254,"lo1":-89.0895,"lo2":-89.0444,"dy":0.0017,"dx":0.0017,"nx":28,"ny":28,"refTime":"2024-05-19T21:00:00:Z","depth":0,"parameterNumber":2,"parameterNumberName":"U-component_of_WINDS"},"data":[0,0,0,0,0,0,0,0,0,0,0,0,0,0,0,0,0,0,0,0,0,0,0,0,0,0,0,0,0,0,0,0,0,0,0,0,0,0,0,0,0,0,0,0,0,0,0,0,0,0,0,0,0,0,0,0,0,0,0.5934,0.5934,0,0.5963,0.5964,0.5964,0.5988,0.5988,0.5988,0.5988,0.602,0.602,0.6021,0,0,0,0,0,0,0,0,0,0,0,0,0,0.5899,0.59,0.5934,0.5934,0.5935,0.5963,0.5964,0.5964,0.5988,0.5988,0.5988,0.5988,0.6019,0.602,0.6021,0,0,0,0,0,0,0,0,0,0,0,0,0,0.592,0.59,0.5934,0.595,0.5952,0.5963,0.5964,0.5964,0.5988,0.5988,0.5988,0.5989,0.6019,0.602,0.6021,0.602,0,0,0.6024,0.6024,0,0,0,0,0,0,0,0,0.5919,0.5921,0.5947,0.5949,0.5951,0.5972,0.5963,0.5983,0.5987,0.5974,0.5988,0.5989,0.6004,0.6006,0.6011,0.6021,0.6023,0.6024,0.6025,0.6025,0.6025,0,0,0,0,0,0,0,0.5918,0.592,0.5946,0.5947,0.595,0.5956,0.5959,0.5967,0.5987,0.5975,0.5977,0.598,0.6005,0.601,0.6012,0.6023,0.6024,0.6025,0.6025,0.6026,0.6035,0.6034,0,0,0,0,0,0,0.5913,0.5919,0.5945,0.5947,0.5935,0.5956,0.596,0.5965,0.5986,0.599,0.598,0.5981,0.6008,0.601,0.6013,0.6013,0.6025,0.6026,0.6026,0.6035,0.6035,0.6034,0,0,0,0,0,0,0.5913,0.5916,0.5944,0.5933,0.5937,0.5956,0.5962,0.5965,0.597,0.599,0.5994,0.5981,0.6008,0.6011,0.6018,0.6015,0.6026,0.6027,0.6035,0.6035,0.6034,0.6014,0,0,0,0,0,0,0.5911,0.5915,0.5914,0.5933,0.5938,0.5948,0.5962,0.5966,0.5972,0.5974,0.5992,0.5996,0.6009,0.6016,0.6019,0.6016,0.6028,0.6036,0.6035,0.6035,0.6015,0.6012,0.6011,0,0,0,0,0,0.591,0.5908,0.5914,0.5917,0.5937,0.5947,0.595,0.5965,0.5971,0.5971,0.5984,0.5995,0.6014,0.6017,0.602,0.6017,0.6036,0.6035,0.6035,0.6016,0.6013,0.6011,0,0,0,0,0,0,0.5888,0.591,0.5918,0.5921,0.5932,0.5951,0.5952,0.5962,0.5972,0.5973,0.5992,0.5996,0.6,0.6009,0.6012,0.6017,0.6027,0.6027,0.6011,0.6009,0.6007,0.6005,0.6029,0,0,0,0,0,0.5884,0.589,0.5909,0.591,0.5915,0.5932,0.5937,0.5948,0.596,0.5965,0.5978,0.599,0.5999,0.6004,0.6014,0.6016,0.6021,0.6016,0.6014,0.6012,0.6012,0.6014,0.6012,0.6032,0.6032,0.6032,0,0,0.5875,0.5887,0.589,0.5906,0.5916,0.5922,0.5936,0.5942,0.5947,0.5966,0.5973,0.5983,0.5998,0.6002,0.6005,0.601,0.6007,0.6011,0.6009,0.601,0.6013,0.6011,0.601,0.6031,0.6032,0.6032,0,0,0.5861,0.5871,0.5873,0.5883,0.5898,0.5909,0.591,0.5927,0.5935,0.5942,0.5956,0.5963,0.5977,0.5987,0.5994,0.5985,0.5996,0.5987,0.5977,0.5979,0.5977,0.5976,0.5973,0.5972,0.5987,0.5987,0.5987,0,0.5848,0.5858,0.5873,0.5878,0.5885,0.5902,0.5905,0.5914,0.5931,0.5935,0.594,0.596,0.5971,0.5978,0.5976,0.598,0.5982,0.5985,0.5976,0.5975,0.5974,0.5972,0.5971,0.5986,0.5986,0.5986,0.5986,0,0.5841,0.5848,0.5848,0.5863,0.587,0.5874,0.5891,0.5896,0.5905,0.5917,0.5924,0.5938,0.595,0.5953,0.5962,0.5962,0.5964,0.5973,0.5983,0.5971,0.5969,0.5968,0.5984,0.5985,0.5985,0.5985,0,0,0.5815,0.5839,0.5839,0.5847,0.5864,0.587,0.5874,0.5886,0.589,0.5902,0.5906,0.5919,0.5927,0.5934,0.5946,0.5947,0.594,0.5956,0.5957,0.5953,0.594,0.5934,0.5933,0.5947,0.5947,0.5947,0.5939,0,0.5805,0.5814,0.5828,0.5833,0.584,0.5856,0.586,0.5872,0.5882,0.589,0.5902,0.591,0.592,0.5925,0.5927,0.594,0.5938,0.5941,0.5952,0.5953,0.5948,0.5931,0.5925,0.5917,0.5938,0.5938,0.5938,0,0.5794,0.5804,0.5809,0.5827,0.583,0.5833,0.5846,0.5852,0.5866,0.5873,0.5882,0.5894,0.5901,0.5909,0.5919,0.5921,0.5927,0.5934,0.5934,0.5936,0.5945,0.5933,0.5915,0.5914,0.5937,0.5937,0.5937,0,0.5775,0.579,0.5795,0.5801,0.5821,0.5823,0.5832,0.5845,0.5852,0.5863,0.5867,0.5879,0.5885,0.5894,0.5909,0.5914,0.5917,0.5927,0.5924,0.5924,0.5924,0.5924,0.5907,0.5927,0.5927,0.5927,0.5927,0,0.5762,0.5765,0.5787,0.579,0.5794,0.581,0.5813,0.5824,0.5836,0.5842,0.5857,0.5862,0.5881,0.5889,0.5901,0.5908,0.591,0.5917,0.592,0.5916,0.5915,0.592,0.5921,0.5927,0.5927,0.5927,0.5927,0,0.5741,0.5756,0.5763,0.5781,0.5786,0.5788,0.5804,0.5808,0.582,0.5827,0.583,0.5848,0.5858,0.5874,0.5888,0.5896,0.5901,0.5906,0.5896,0.5898,0.5895,0.5895,0.588,0.5879,0.59,0.5899,0.5899,0,0.5733,0.5735,0.5754,0.5759,0.5766,0.5774,0.5781,0.5797,0.5803,0.5819,0.5821,0.5832,0.5842,0.5857,0.5872,0.5884,0.5889,0.5883,0.5891,0.5887,0.589,0.589,0.589,0.5882,0.5881,0.5881,0.5881,0,0.5715,0.5722,0.5731,0.5742,0.575,0.5759,0.577,0.5773,0.5792,0.5798,0.5808,0.5816,0.5831,0.5842,0.5855,0.5865,0.5876,0.5878,0.5878,0.5874,0.5869,0.5872,0.5892,0.5879,0.5879,0.5879,0.5879,0.5879,0.5701,0.5704,0.5717,0.5727,0.5736,0.5746,0.5751,0.5763,0.5771,0.5784,0.5794,0.5803,0.5817,0.5837,0.5845,0.5854,0.5859,0.5859,0.5859,0.5859,0.5857,0.5867,0.5856,0.5856,0.5856,0.5856,0.5856,0,0.5685,0.5694,0.5703,0.5717,0.5724,0.5734,0.5746,0.5751,0.576,0.5772,0.5781,0.5793,0.5804,0.5819,0.5831,0.5835,0.584,0.5838,0.5838,0.584,0.5852,0.5851,0.5833,0.5833,0.5833,0.5833,0.5833,0.5833,0.5677,0.5683,0.5692,0.5703,0.5713,0.5722,0.5728,0.5737,0.5747,0.5759,0.5768,0.5778,0.5792,0.5805,0.5816,0.582,0.5824,0.582,0.5826,0.5837,0.5839,0.5841,0.584,0.582,0.582,0.5813,0.5813,0.5813]},{"header":{"parameterUnit":"m.s-1","parameterCategory":1,"la1":30.2991,"la2":30.254,"lo1":-89.0895,"lo2":-89.0444,"dy":0.0017,"dx":0.0017,"nx":28,"ny":28,"refTime":"2024-05-19T21:00:00:Z","depth":0,"parameterNumber":3,"parameterNumberName":"V-component_of_WINDS"},"data":[0,0,0,0,0,0,0,0,0,0,0,0,0,0,0,0,0,0,0,0,0,0,0,0,0,0,0,0,0,0,0,0,0,0,0,0,0,0,0,0,0,0,0,0,0,0,0,0,0,0,0,0,0,0,0,0,0,0,-1.4229,-1.4229,0,-1.4194,-1.4193,-1.4193,-1.4185,-1.4185,-1.4186,-1.4186,-1.4149,-1.4147,-1.4146,0,0,0,0,0,0,0,0,0,0,0,0,0,-1.429,-1.4289,-1.4229,-1.4229,-1.4228,-1.4194,-1.4193,-1.4193,-1.4185,-1.4185,-1.4186,-1.4186,-1.4149,-1.4148,-1.4146,0,0,0,0,0,0,0,0,0,0,0,0,0,-1.426,-1.4289,-1.4229,-1.422,-1.4219,-1.4194,-1.4193,-1.4193,-1.4185,-1.4185,-1.4186,-1.4186,-1.4149,-1.4148,-1.4146,-1.4127,0,0,-1.414,-1.4139,0,0,0,0,0,0,0,0,-1.4262,-1.4258,-1.4222,-1.4221,-1.422,-1.4194,-1.4201,-1.4171,-1.4185,-1.4198,-1.4186,-1.4186,-1.4163,-1.416,-1.4153,-1.4125,-1.4123,-1.414,-1.4139,-1.4138,-1.4138,0,0,0,0,0,0,0,-1.4264,-1.426,-1.4215,-1.4222,-1.422,-1.4218,-1.4214,-1.4195,-1.4179,-1.4197,-1.4196,-1.4192,-1.4163,-1.4155,-1.4152,-1.4123,-1.414,-1.4138,-1.4137,-1.4137,-1.408,-1.4079,0,0,0,0,0,0,-1.4268,-1.4261,-1.4216,-1.4214,-1.4242,-1.4217,-1.4213,-1.4202,-1.4179,-1.4176,-1.4192,-1.4192,-1.4158,-1.4154,-1.4151,-1.4128,-1.4138,-1.4136,-1.4135,-1.408,-1.408,-1.4079,0,0,0,0,0,0,-1.4269,-1.4264,-1.4218,-1.4238,-1.4232,-1.4215,-1.4204,-1.4201,-1.4193,-1.4175,-1.4172,-1.4187,-1.4158,-1.4153,-1.4133,-1.4127,-1.4136,-1.4134,-1.4081,-1.408,-1.4079,-1.4082,0,0,0,0,0,0,-1.4271,-1.4264,-1.4257,-1.4237,-1.4231,-1.4201,-1.4203,-1.42,-1.419,-1.419,-1.417,-1.4167,-1.4158,-1.4136,-1.4131,-1.4124,-1.4132,-1.4081,-1.408,-1.408,-1.4083,-1.4082,-1.4081,0,0,0,0,0,-1.4273,-1.4258,-1.4256,-1.4251,-1.4221,-1.42,-1.4196,-1.4187,-1.4189,-1.4182,-1.4171,-1.4167,-1.4128,-1.4134,-1.4129,-1.4121,-1.4081,-1.408,-1.408,-1.4083,-1.4082,-1.4081,0,0,0,0,0,0,-1.4276,-1.4255,-1.4253,-1.4232,-1.4218,-1.4199,-1.4189,-1.4186,-1.4171,-1.4171,-1.4159,-1.4155,-1.4136,-1.4126,-1.4133,-1.4102,-1.4105,-1.4103,-1.4109,-1.4108,-1.4107,-1.411,-1.4131,0,0,0,0,0,-1.4275,-1.426,-1.4243,-1.4225,-1.4219,-1.4205,-1.4196,-1.419,-1.4175,-1.4169,-1.4157,-1.4142,-1.4127,-1.4117,-1.4102,-1.4081,-1.4077,-1.4073,-1.4073,-1.4072,-1.407,-1.406,-1.4059,-1.4076,-1.4076,-1.4076,0,0,-1.427,-1.4257,-1.4249,-1.4226,-1.4214,-1.42,-1.42,-1.4184,-1.4174,-1.4167,-1.4148,-1.4138,-1.4121,-1.4102,-1.4092,-1.4093,-1.4065,-1.4071,-1.4071,-1.4069,-1.4059,-1.4058,-1.4056,-1.4076,-1.4076,-1.4076,0,0,-1.4256,-1.4244,-1.4229,-1.4219,-1.4202,-1.4194,-1.419,-1.4172,-1.4166,-1.4147,-1.4142,-1.4129,-1.4102,-1.4091,-1.4082,-1.4066,-1.4062,-1.4061,-1.4057,-1.4047,-1.4046,-1.4045,-1.404,-1.4038,-1.406,-1.406,-1.406,0,-1.4253,-1.4231,-1.4222,-1.4207,-1.4198,-1.4192,-1.4177,-1.4167,-1.4146,-1.414,-1.4141,-1.4109,-1.4097,-1.4075,-1.4072,-1.4064,-1.406,-1.4063,-1.4047,-1.4046,-1.4044,-1.404,-1.4038,-1.406,-1.406,-1.406,-1.406,0,-1.4229,-1.4214,-1.4204,-1.4185,-1.4175,-1.416,-1.4149,-1.4139,-1.4135,-1.4126,-1.4108,-1.4094,-1.4076,-1.4071,-1.4065,-1.4049,-1.405,-1.4049,-1.4052,-1.4043,-1.4038,-1.4036,-1.406,-1.406,-1.406,-1.406,0,0,-1.4214,-1.4192,-1.4189,-1.4181,-1.4163,-1.4152,-1.4137,-1.4121,-1.4113,-1.4099,-1.4088,-1.4066,-1.4066,-1.4056,-1.405,-1.4041,-1.4031,-1.4042,-1.4041,-1.4041,-1.4013,-1.4014,-1.4012,-1.4029,-1.4028,-1.4028,-1.4014,0,-1.4199,-1.4173,-1.4165,-1.4144,-1.4131,-1.4126,-1.4113,-1.4101,-1.4093,-1.4081,-1.4072,-1.4058,-1.4058,-1.4052,-1.4044,-1.4034,-1.4025,-1.4035,-1.4018,-1.4017,-1.4022,-1.4009,-1.401,-1.3998,-1.4013,-1.4012,-1.4012,0,-1.4176,-1.4163,-1.4141,-1.4127,-1.4121,-1.411,-1.4095,-1.4083,-1.407,-1.4065,-1.4055,-1.405,-1.4035,-1.4039,-1.4019,-1.4025,-1.4018,-1.4013,-1.4012,-1.401,-1.4014,-1.4008,-1.3994,-1.3992,-1.4009,-1.4009,-1.4009,0,-1.4169,-1.4146,-1.413,-1.4124,-1.4106,-1.4099,-1.4091,-1.4078,-1.407,-1.4057,-1.4051,-1.4037,-1.4029,-1.4018,-1.4009,-1.4013,-1.3991,-1.3993,-1.3987,-1.3987,-1.3982,-1.3982,-1.3967,-1.3977,-1.3977,-1.3977,-1.3977,0,-1.4153,-1.4139,-1.4127,-1.4117,-1.4103,-1.4094,-1.408,-1.4072,-1.4061,-1.405,-1.4045,-1.4034,-1.4023,-1.4012,-1.4005,-1.399,-1.3986,-1.3982,-1.3981,-1.3983,-1.3984,-1.3978,-1.3979,-1.3976,-1.3976,-1.3977,-1.3977,0,-1.4142,-1.4133,-1.4116,-1.4102,-1.4098,-1.4088,-1.4075,-1.4066,-1.4058,-1.4045,-1.4041,-1.4029,-1.4015,-1.4006,-1.3988,-1.3983,-1.3968,-1.3966,-1.3972,-1.3972,-1.3966,-1.3967,-1.3947,-1.3944,-1.3955,-1.3955,-1.3955,0,-1.4132,-1.4122,-1.4107,-1.41,-1.4092,-1.408,-1.4072,-1.4064,-1.4055,-1.404,-1.4033,-1.4019,-1.4008,-1.3986,-1.3976,-1.3962,-1.3961,-1.3955,-1.3958,-1.3962,-1.3961,-1.3962,-1.3962,-1.3954,-1.3954,-1.3954,-1.3954,0,-1.4116,-1.4113,-1.4101,-1.4089,-1.4079,-1.4068,-1.4058,-1.4052,-1.4042,-1.4033,-1.4019,-1.401,-1.3993,-1.3979,-1.3965,-1.3957,-1.3954,-1.3953,-1.3951,-1.3953,-1.3957,-1.3956,-1.3971,-1.3953,-1.3953,-1.3953,-1.3953,-1.3953,-1.4106,-1.4098,-1.4086,-1.4074,-1.4065,-1.4056,-1.4047,-1.4039,-1.4028,-1.4013,-1.4009,-1.3995,-1.3984,-1.3965,-1.3957,-1.3946,-1.3946,-1.3943,-1.3942,-1.3942,-1.3942,-1.3959,-1.3943,-1.3943,-1.3943,-1.3943,-1.3943,0,-1.4091,-1.4084,-1.4072,-1.4058,-1.4049,-1.4047,-1.4036,-1.4028,-1.4016,-1.4006,-1.3995,-1.398,-1.3967,-1.3957,-1.3944,-1.3937,-1.3936,-1.3934,-1.3935,-1.3933,-1.3942,-1.3946,-1.3936,-1.3936,-1.3936,-1.3936,-1.3936,-1.3936,-1.4081,-1.4067,-1.4063,-1.4045,-1.4038,-1.4025,-1.4019,-1.401,-1.4002,-1.3986,-1.3976,-1.3969,-1.3959,-1.3945,-1.3934,-1.3931,-1.3927,-1.3926,-1.3923,-1.3932,-1.3932,-1.3933,-1.3937,-1.3925,-1.3925,-1.3915,-1.3915,-1.3915]}]]